STARLINK-36907

Last updated on Fri Mar 27 2026 00:02:06 GMT+0000 (Coordinated Universal Time)

1 67940U 26037J 26085.50002314 .00115122 00000+0 19446-2 0 9997 2 67940 43.0002 96.9336 0001201 280.6845 251.9788 15.50504513 5903
UTC large
Height (km)
Speed (km/s)
/
Latitude / Longitude
Inclination (degrees)
Orbital Period (minutes)
Azimuth
Elevation
Range (km)
Doppler Factor

Next 0 passes for location: London (51.5072 / 0.1276)

Sorry there are no passes over London.